Theta_e
354 346 329 325 326 328 329 332 334 336 338 338 339 340 340 340 340 339 338 336 335 334 333 333 332 330 325 323 325 329 329 328 326 327 324 321 324 325 321 316 314 315 315 315 316 316 316 317 318 320 321 322 322 322 323 325 325 325 325 324 324 323 323 323 323 323 323 323 323 324 324 323 323 321 318 316 320 322 321 322 319 317 317 318 318
350 347 331 324 326 328 330 332 333 335 336 338 340 339 341 340 340 339 338 336 335 335 334 334 333 332 328 324 323 328 329 327 327 328 326 323 326 323 317 314 314 315 315 316 316 316 316 317 319 321 322 323 323 324 325 326 327 328 328 328 327 327 327 327 327 327 327 326 324 323 323 324 324 324 322 320 319 319 318 318 316 315 316 317 317
345 344 331 325 327 328 330 331 332 335 336 338 338 339 341 341 340 339 339 337 336 335 334 334 334 333 330 326 323 326 328 328 327 328 327 325 327 322 314 313 314 315 315 315 316 316 317 318 320 323 324 324 325 326 327 328 329 329 329 330 330 332 331 333 333 333 333 333 330 327 324 323 324 324 324 324 323 322 322 321 320 320 321 321 319
343 340 332 327 328 328 330 331 332 334 335 337 337 339 341 341 340 340 339 337 336 335 335 334 334 333 331 328 324 325 327 327 327 328 327 325 327 320 313 314 315 315 315 316 317 317 318 320 322 325 327 326 326 327 329 329 330 330 330 331 332 334 335 336 337 337 336 336 336 333 329 325 324 324 323 323 323 322 322 323 325 328 329 328 326
342 339 333 328 329 330 330 331 332 333 334 335 336 339 341 341 341 340 339 337 337 336 335 335 334 334 333 330 326 324 325 327 328 328 326 325 326 320 313 314 315 315 315 316 318 319 320 322 324 326 328 328 329 329 330 330 331 331 331 331 332 334 336 337 338 338 338 338 338 337 334 328 325 324 323 323 322 320 319 319 324 329 331 331 328
342 338 333 328 330 330 330 331 332 333 334 335 336 338 341 342 340 340 339 338 337 336 335 335 335 334 333 331 327 325 324 326 327 327 326 325 326 319 313 314 315 315 315 317 319 321 323 324 326 327 328 329 330 330 331 331 331 331 332 332 333 334 336 337 337 338 338 338 337 338 337 331 327 326 324 325 324 322 321 319 321 326 328 329 328
342 339 333 328 329 330 331 331 332 333 334 334 335 338 341 341 341 340 340 339 337 336 336 335 335 334 333 332 328 325 324 325 327 327 325 325 326 317 313 314 314 315 315 317 319 322 324 326 327 328 328 329 330 331 331 331 331 331 331 331 332 333 336 336 337 339 337 337 337 337 337 334 330 328 325 324 323 323 324 323 321 323 324 326 326
342 341 334 329 329 330 332 331 332 333 333 334 335 338 340 341 340 340 340 339 338 337 336 335 335 334 333 333 330 326 325 324 325 326 324 325 325 316 313 314 314 315 315 317 319 323 326 327 328 328 329 330 331 331 331 330 331 331 331 330 330 332 336 337 337 338 336 336 337 338 339 336 331 330 327 324 323 323 325 324 321 323 325 325 325
343 341 334 331 330 329 331 332 332 332 333 334 335 337 340 340 340 341 340 339 338 337 336 335 334 334 334 333 330 327 324 324 324 325 323 324 324 316 312 314 314 314 315 316 319 323 327 329 329 329 330 331 331 332 331 331 331 331 330 330 331 333 336 338 337 337 336 336 338 338 339 336 331 331 330 327 326 325 326 325 323 325 328 328 325
346 342 335 332 330 329 331 333 333 333 334 334 335 336 339 340 340 341 340 340 338 337 336 335 334 333 334 334 330 327 324 323 322 324 322 324 324 315 312 314 314 314 314 316 318 323 327 329 328 329 330 331 331 331 331 331 331 330 330 330 332 334 337 338 337 337 336 337 338 338 337 334 331 331 331 330 329 328 328 327 327 326 328 329 328
347 343 339 333 331 329 331 333 332 333 334 334 335 335 338 340 340 340 340 340 338 337 336 334 334 332 333 333 330 327 324 322 321 321 321 323 323 315 313 314 314 314 314 315 317 320 325 328 328 329 330 331 331 331 331 331 330 330 330 331 333 334 336 337 337 337 336 337 338 338 337 332 330 331 332 331 331 330 330 329 328 327 328 329 329
346 346 344 335 331 330 330 332 333 333 334 333 334 335 337 340 340 340 339 340 338 337 336 335 333 330 332 331 328 326 323 321 320 320 320 323 322 315 313 314 314 314 314 315 316 319 322 326 328 329 330 331 331 331 331 331 330 330 330 331 333 334 335 336 336 337 336 337 337 336 335 331 329 331 331 331 331 331 330 330 327 326 328 329 329
346 348 348 340 333 331 330 330 333 333 333 332 333 334 335 339 340 340 339 338 338 337 335 334 333 330 330 329 327 324 321 319 319 318 319 322 321 314 313 314 314 314 314 314 316 318 320 324 328 329 330 330 331 330 330 329 329 329 330 331 333 334 335 336 336 337 337 337 336 333 333 331 330 331 331 331 331 331 331 330 327 324 327 329 329
346 347 349 345 334 331 331 329 332 333 333 332 332 334 335 338 340 340 338 338 337 336 335 333 332 330 328 327 326 321 318 318 318 317 319 322 319 313 313 314 314 314 313 314 315 317 319 323 327 328 328 329 329 329 328 328 328 329 330 331 333 334 335 336 334 335 337 337 337 334 333 332 331 330 330 331 331 330 330 330 326 323 325 327 328
346 346 348 348 337 331 332 330 332 334 333 332 332 333 335 337 340 339 337 336 335 333 333 331 331 330 328 327 323 319 318 317 316 316 319 321 316 313 314 314 314 313 313 314 316 317 319 323 326 326 326 327 327 327 327 327 328 329 330 332 334 334 334 336 334 334 336 337 337 335 333 333 331 330 329 330 330 330 329 328 326 323 323 323 323
347 346 346 349 341 331 333 333 333 334 333 332 331 332 334 334 337 338 336 334 332 330 329 329 331 330 328 325 321 318 316 315 314 316 320 319 314 313 314 314 314 313 313 314 315 316 318 323 325 324 323 324 325 326 326 327 328 329 331 334 336 335 335 336 335 335 336 337 337 334 333 333 331 330 329 329 330 330 329 328 326 323 321 321 321
348 349 348 350 344 333 333 335 334 334 333 332 331 331 332 332 333 334 333 331 329 327 326 327 329 329 328 323 319 318 315 312 314 317 319 316 313 313 314 314 313 313 314 314 315 315 318 322 324 322 321 322 323 325 326 327 327 328 333 336 336 336 335 336 335 335 336 336 337 334 332 332 331 330 329 329 329 330 329 328 326 323 320 319 320
349 351 349 351 347 335 333 335 334 334 333 332 331 331 331 330 329 330 330 329 327 326 326 326 327 328 327 321 318 317 314 312 315 318 317 314 313 314 314 314 313 313 313 314 314 315 317 321 323 321 320 321 322 324 324 325 326 328 333 335 335 336 335 335 334 335 337 337 335 332 331 331 330 330 329 329 329 330 329 329 327 324 321 320 320
349 351 350 350 347 337 334 335 334 334 333 332 332 331 330 330 328 328 327 327 326 326 326 325 327 328 325 319 317 315 313 314 317 317 315 313 313 314 314 313 313 313 313 314 314 315 317 320 321 320 319 321 321 321 322 324 326 329 332 333 334 334 334 334 334 334 337 338 333 330 330 330 330 330 329 329 329 330 329 329 328 325 322 321 321
349 351 349 347 345 339 335 335 334 333 333 332 331 331 329 329 328 326 325 325 326 326 326 326 327 328 322 318 316 314 313 315 317 315 313 313 313 314 314 313 314 314 314 314 314 315 317 320 320 319 318 318 319 320 323 325 327 330 331 332 332 332 333 333 333 334 336 337 332 328 329 329 330 330 329 329 329 329 329 329 328 326 323 321 321
349 349 348 346 345 342 338 336 335 334 334 333 331 331 329 329 328 326 325 325 327 326 326 327 329 326 319 317 316 313 314 316 316 313 313 313 313 314 314 314 314 314 314 314 315 316 317 320 319 317 316 316 320 325 326 328 329 330 331 331 332 332 332 332 332 334 335 336 331 327 329 329 329 329 329 329 329 329 329 329 329 328 325 322 322
348 349 348 345 343 343 340 338 337 335 334 333 331 332 332 331 329 329 327 327 329 328 326 328 329 324 318 317 314 313 316 316 314 313 313 313 314 314 314 314 314 314 314 315 316 317 318 319 318 315 315 318 325 329 329 329 329 329 330 332 332 331 332 332 331 332 334 336 331 325 328 329 328 329 329 329 329 329 329 329 329 328 326 324 323
347 348 348 345 343 343 341 339 340 338 333 333 332 331 333 333 332 331 329 328 330 328 327 329 329 323 318 317 314 314 316 315 314 313 314 314 314 314 314 314 314 314 315 316 317 318 319 318 316 314 317 325 330 332 331 331 331 328 328 331 332 331 332 332 330 330 332 334 331 325 327 328 328 329 329 329 329 329 329 329 330 329 327 325 325
344 347 347 345 344 343 342 339 341 341 336 333 331 331 333 332 333 331 327 328 330 328 328 329 329 322 318 316 314 315 316 315 313 313 314 314 314 314 314 314 314 315 315 317 318 318 318 316 315 315 319 329 333 332 332 332 330 328 328 330 331 331 332 332 330 330 331 332 331 326 325 328 327 328 329 329 329 328 329 329 330 330 329 327 326
342 345 346 346 344 344 342 340 341 342 339 336 331 332 333 331 332 330 326 329 329 328 328 330 329 321 318 316 313 316 317 316 312 313 314 313 314 314 314 315 315 316 316 318 319 318 318 315 314 315 321 329 333 333 332 331 329 328 328 329 331 331 331 331 330 330 330 332 332 327 325 328 328 328 329 328 329 329 329 329 330 330 330 328 327
341 343 346 345 345 344 343 340 341 342 341 339 333 332 334 331 331 328 327 330 329 330 330 329 328 322 318 316 315 319 319 316 313 313 314 314 314 314 314 315 316 317 317 319 319 319 317 314 314 317 322 330 333 333 330 328 327 327 327 329 330 331 330 330 330 330 331 331 332 329 326 328 329 329 329 329 329 329 329 329 330 331 330 329 328
343 343 344 345 345 345 344 341 340 341 341 339 336 333 333 332 330 327 329 331 330 332 333 330 327 322 319 315 316 323 323 315 313 313 313 314 313 314 315 315 317 318 319 319 318 318 315 315 322 326 327 331 333 332 329 327 325 325 326 328 329 330 330 330 330 329 330 331 332 331 327 328 330 330 330 329 330 329 330 330 330 331 331 330 330
344 342 342 345 345 344 345 343 341 341 340 340 339 336 334 332 328 326 329 331 330 331 333 330 326 322 318 315 318 328 330 317 311 314 313 314 314 314 315 316 318 319 320 319 319 321 320 322 330 333 332 333 332 330 327 326 325 324 325 328 328 330 331 331 331 330 331 332 332 333 329 328 329 330 331 330 330 330 330 330 330 331 331 331 330
344 342 341 344 344 345 345 343 342 340 340 342 341 337 334 332 327 326 329 331 330 328 331 330 326 323 318 321 327 332 335 325 312 313 314 313 314 314 315 317 317 320 321 318 322 331 331 330 332 333 334 332 330 328 326 325 324 324 325 328 329 329 331 331 331 331 331 332 332 335 332 329 328 329 330 330 331 331 330 330 330 332 331 331 331
344 343 341 343 344 344 344 344 343 340 340 342 342 338 334 334 328 326 331 331 329 328 331 331 327 325 319 326 335 335 338 333 316 312 315 314 315 314 315 319 319 325 329 323 327 337 335 332 332 332 331 327 326 325 325 325 323 324 324 326 329 329 331 332 331 331 331 332 332 335 335 330 328 328 329 330 331 330 330 331 330 331 332 331 331
344 344 343 344 344 344 344 344 344 341 341 341 343 340 335 338 333 328 331 331 331 332 333 332 329 326 322 326 335 337 339 338 322 312 317 317 318 317 317 324 326 329 336 331 329 336 335 333 331 329 327 326 326 325 325 325 323 323 324 326 329 329 331 331 330 331 332 333 333 335 335 332 330 329 328 329 330 329 330 330 331 331 331 332 331
343 344 343 344 344 344 344 344 344 342 341 341 343 340 336 339 337 332 329 329 336 337 335 334 331 328 325 323 332 337 339 340 330 315 318 321 322 322 319 327 332 330 336 336 331 334 334 331 329 327 326 326 328 329 327 325 323 323 324 325 327 330 331 330 330 331 333 334 333 334 334 334 333 331 329 329 329 328 328 329 331 331 331 332 331
341 343 343 344 345 345 344 344 344 343 342 342 343 340 338 340 339 335 330 329 338 339 337 337 335 331 326 324 332 337 339 342 335 319 320 323 324 327 323 328 335 333 335 337 333 333 334 330 328 329 327 325 328 328 324 322 323 324 324 325 326 329 330 330 329 330 332 333 333 334 333 334 334 333 332 330 329 328 326 327 330 332 332 332 331
339 342 344 345 344 344 344 344 343 342 342 342 344 340 339 341 339 338 335 334 338 340 338 338 336 334 328 326 334 338 338 342 336 321 322 325 327 330 327 331 336 336 335 335 335 333 332 330 330 330 325 322 322 322 320 322 325 325 325 327 328 330 332 331 329 329 331 331 333 333 334 335 334 334 333 330 330 329 326 326 329 331 332 332 332
337 339 341 344 344 344 344 344 343 341 338 340 344 341 340 342 339 338 340 338 339 339 339 338 336 336 332 329 336 338 337 342 336 322 324 329 329 329 329 331 334 336 335 333 332 329 326 327 329 329 325 324 323 321 322 324 326 326 326 329 331 332 332 329 328 330 332 333 333 333 334 335 334 334 332 329 328 328 326 328 329 331 332 332 332
334 336 337 339 343 345 344 345 343 341 339 341 344 342 340 342 340 339 342 340 339 340 340 338 336 337 335 332 336 338 337 342 338 326 327 331 330 329 328 329 331 333 333 328 325 322 320 321 324 324 325 329 330 326 324 324 326 328 326 327 330 331 329 329 330 331 333 334 334 334 334 335 335 335 334 330 328 326 327 329 330 331 332 332 332
331 334 336 336 339 344 344 345 344 341 341 343 344 343 341 341 340 340 342 341 339 341 341 338 337 338 338 335 336 338 337 341 339 329 330 332 330 329 327 328 331 331 329 322 318 317 316 317 319 320 322 327 330 328 326 324 327 331 330 330 330 330 330 331 333 334 334 335 335 334 334 335 335 336 334 330 328 326 328 330 330 330 331 332 332
330 332 335 336 338 342 345 345 344 342 342 343 342 342 342 341 340 340 341 341 339 341 340 337 337 339 338 337 337 337 337 340 338 330 329 331 330 328 325 328 330 328 325 320 316 315 315 317 319 318 318 321 323 324 327 330 332 333 333 334 334 334 334 332 333 336 337 336 336 336 335 335 335 335 334 330 327 328 329 330 330 330 331 331 332
330 331 333 335 336 339 344 344 343 342 341 341 341 341 341 340 340 340 340 340 339 341 341 337 336 338 337 338 337 335 336 339 336 329 325 328 332 331 326 326 326 323 322 319 315 314 316 321 322 318 316 316 316 318 324 330 333 334 335 336 335 334 334 332 334 337 338 337 336 336 336 335 334 334 333 330 328 328 329 329 330 331 331 332 331
328 331 333 334 335 338 341 342 342 341 340 340 341 341 341 339 340 341 340 339 339 340 340 336 335 337 336 336 335 332 336 339 337 330 323 326 334 332 326 324 321 319 318 316 315 314 315 320 320 317 315 315 315 314 319 327 332 333 334 333 332 332 334 335 336 338 339 338 336 334 335 334 334 334 333 331 329 328 328 329 330 331 332 332 331
328 331 334 334 336 338 338 338 338 338 339 340 340 341 342 340 338 340 340 339 339 340 340 337 335 337 336 335 333 331 336 340 337 333 325 324 330 329 325 322 318 316 315 314 314 314 314 316 316 315 315 314 315 313 318 330 334 331 332 334 335 336 337 337 338 339 339 339 338 334 333 333 333 333 333 331 330 330 329 328 329 331 332 332 332
329 330 333 335 336 336 332 332 335 336 338 339 339 338 340 340 338 338 339 338 339 340 340 339 336 338 338 334 332 330 336 340 337 333 326 321 323 324 322 318 315 315 314 313 313 314 315 315 315 315 315 314 315 314 317 328 332 331 333 337 338 338 337 338 339 340 339 339 339 336 334 334 330 330 332 332 331 331 330 329 330 331 332 332 333
327 326 328 332 335 334 328 326 328 334 339 338 339 338 337 340 338 338 339 337 338 340 340 340 338 339 338 336 335 330 334 340 337 330 325 321 319 319 319 315 315 314 313 313 313 315 317 316 315 314 315 316 317 320 323 326 330 335 337 338 338 338 339 340 340 339 338 338 338 336 335 335 329 327 330 331 331 332 332 332 332 332 333 333 333
322 322 323 328 333 333 328 323 319 329 339 339 338 338 338 340 339 339 341 339 339 339 339 340 339 339 338 338 338 333 334 340 337 328 322 320 317 316 316 315 315 314 314 314 313 315 317 315 315 314 314 317 321 326 329 329 329 333 337 338 339 338 339 340 339 338 337 336 337 337 336 336 332 329 330 332 333 333 333 333 333 333 333 333 333
318 321 323 327 331 332 329 324 315 320 334 340 339 339 340 340 339 340 341 340 340 339 339 340 339 338 337 338 338 336 336 338 336 330 322 319 317 316 315 314 315 315 314 315 314 314 315 314 315 315 314 318 328 335 335 335 334 332 334 337 339 339 339 339 338 337 338 337 337 338 338 337 335 333 331 332 334 334 334 334 333 333 333 333 333
318 321 325 328 331 332 330 325 316 313 325 337 340 339 341 341 340 340 339 339 340 340 339 339 338 336 334 337 339 338 336 337 336 331 323 319 317 315 315 315 315 315 314 314 315 314 315 315 315 315 314 317 330 340 340 339 339 337 335 334 336 337 338 337 337 336 339 339 338 339 339 337 338 336 330 331 335 336 334 334 334 334 333 333 333
317 320 325 328 331 332 331 325 317 311 318 332 339 340 341 341 341 340 337 336 339 340 340 339 337 334 331 335 340 338 336 339 337 330 322 319 317 315 317 319 318 316 315 314 315 315 315 315 315 317 320 320 326 335 340 342 341 339 338 336 335 336 336 336 336 336 338 339 339 340 339 338 339 337 332 331 335 336 335 334 334 334 333 333 333
317 319 323 326 329 332 332 326 319 314 315 328 338 339 340 341 340 339 336 334 335 339 340 339 338 337 334 335 339 338 337 339 337 329 321 319 317 314 319 324 321 316 315 315 314 316 315 318 326 331 332 333 334 333 335 340 342 341 339 338 338 339 338 337 335 334 336 339 340 340 339 339 339 339 337 335 334 336 336 335 334 334 333 333 333
317 319 322 324 326 330 332 328 323 319 317 326 336 338 339 340 338 337 336 335 334 336 338 340 340 339 338 338 339 338 337 338 335 327 319 319 317 314 322 331 328 318 314 314 314 316 315 322 335 341 340 340 341 338 332 332 338 341 340 339 339 339 339 338 336 336 337 339 339 339 340 340 340 340 339 338 337 337 336 336 335 334 333 333 333
317 318 321 323 325 329 331 331 328 324 321 324 332 337 338 339 338 336 335 334 335 334 335 338 340 339 339 339 339 339 339 337 331 323 319 318 317 316 323 332 332 323 316 314 316 317 316 322 335 340 341 341 341 337 332 328 333 339 341 340 340 340 340 339 338 338 339 340 339 339 340 340 339 339 339 338 338 338 336 335 335 335 334 333 333
317 317 319 322 325 328 330 332 331 329 325 322 325 334 338 339 339 337 335 333 334 334 334 336 339 339 339 340 339 338 339 337 329 321 319 317 316 317 321 327 328 323 318 316 317 318 317 323 331 335 335 336 333 331 330 329 332 337 339 340 339 340 340 339 339 339 340 341 341 341 341 340 339 338 338 338 338 338 335 334 335 335 334 333 333
Wind_Speed
12 15 20 23 25 26 27 26 26 24 23 22 22 22 21 21 20 20 20 21 20 20 19 19 18 18 19 20 21 21 21 20 19 18 18 19 20 20 22 25 25 24 24 23 22 21 20 20 19 19 19 19 19 18 19 19 19 19 19 19 19 19 20 21 22 23 24 23 22 21 20 19 18 19 19 19 18 15 14 14 13 13 15 15 15
10 15 21 23 25 26 27 27 25 24 23 22 22 22 21 21 20 20 21 20 20 19 19 18 17 17 18 19 20 20 21 20 18 17 17 19 20 21 23 25 24 24 23 22 21 21 20 19 19 19 19 19 19 19 20 20 20 20 19 19 18 18 18 19 20 21 23 24 24 22 20 19 19 18 18 18 16 14 13 12 12 13 15 15 15
6 14 22 23 25 26 27 27 25 24 22 22 21 22 22 21 21 21 21 20 20 19 18 17 17 17 17 19 20 20 20 19 18 17 17 18 20 21 24 24 24 23 22 21 20 20 19 19 19 19 20 19 19 19 20 20 20 19 19 19 19 19 18 19 19 19 20 21 23 23 21 19 18 17 17 16 15 14 13 12 12 14 15 16 15
4 12 23 24 26 26 27 27 25 24 22 22 21 22 22 21 21 21 21 20 19 18 17 17 16 16 17 18 19 19 19 19 18 17 17 18 19 21 23 24 23 23 22 21 20 19 19 19 19 20 19 19 19 19 19 19 19 18 18 18 19 19 20 20 20 20 19 18 19 21 21 19 17 16 15 15 15 14 14 14 13 13 14 15 15
4 9 22 25 26 26 26 27 26 25 23 22 22 22 22 22 21 21 21 21 19 18 17 16 16 16 16 17 18 19 19 19 18 16 17 17 19 22 23 23 23 22 21 20 19 19 18 18 19 19 18 18 18 18 18 18 17 17 17 17 18 18 19 19 20 19 17 15 14 16 17 18 17 15 14 14 14 15 15 16 14 13 12 12 13
4 7 22 26 26 27 26 27 26 25 24 23 22 22 22 22 22 22 21 20 19 18 17 16 15 15 15 16 17 18 18 18 17 16 16 17 19 22 23 23 22 22 20 19 19 18 18 18 17 17 16 16 16 16 16 16 15 15 16 17 18 18 19 18 19 17 14 14 13 15 13 15 17 16 15 13 13 15 16 17 15 13 11 10 11
4 7 22 26 26 27 26 27 26 26 24 23 23 23 23 22 22 22 21 20 19 17 17 16 15 15 15 15 17 18 18 18 17 16 16 17 19 22 23 22 22 21 20 19 18 17 17 16 15 15 14 14 14 14 14 14 14 15 15 16 16 16 17 17 17 13 12 15 14 15 10 12 16 15 15 14 14 15 15 16 15 13 11 10 10
4 8 22 26 26 26 27 27 26 26 25 24 23 23 24 22 22 22 22 20 19 17 16 15 15 14 14 15 16 17 17 17 17 16 16 17 19 22 23 22 22 20 20 18 17 16 15 15 14 14 13 13 13 13 13 13 13 14 14 15 14 14 14 15 15 11 11 15 15 15 8 11 15 14 15 15 15 15 15 15 15 13 11 11 10
5 10 23 25 26 26 26 26 26 26 25 24 23 24 24 23 22 22 22 20 19 17 16 15 15 14 14 14 15 16 16 16 16 16 16 17 19 22 23 22 21 20 19 17 16 15 15 14 14 14 13 13 13 12 12 12 12 13 14 14 14 13 13 13 12 10 12 15 16 14 7 10 14 13 13 13 15 16 15 15 15 14 12 12 11
4 11 23 24 25 26 26 26 26 26 25 24 23 23 24 24 22 22 22 20 19 17 16 15 14 14 14 14 15 16 16 16 16 16 17 17 20 22 22 22 21 20 19 17 15 15 15 14 14 13 12 12 12 12 11 10 11 12 13 14 14 12 12 12 11 10 11 13 12 10 6 10 13 12 11 11 14 14 14 14 15 14 12 12 12
4 12 21 21 26 25 26 26 25 25 24 24 23 22 23 24 23 22 22 20 19 18 17 16 14 14 14 14 14 15 15 15 15 16 18 18 20 22 22 21 21 19 18 16 15 14 14 14 13 12 12 11 10 10 9 9 10 11 12 13 14 12 12 11 10 9 9 10 10 9 7 10 12 12 10 9 11 12 12 13 15 15 13 12 12
7 12 16 17 26 25 26 26 25 26 24 24 22 22 23 23 23 22 21 20 19 18 17 16 15 14 14 14 14 15 14 15 15 17 19 20 21 23 22 21 20 19 18 16 14 14 14 13 12 11 11 10 9 9 8 9 9 10 11 12 12 12 11 9 8 9 9 8 9 9 7 10 13 12 10 9 10 10 11 12 14 14 12 11 11
13 16 15 14 26 27 25 26 25 25 24 23 22 22 22 23 24 22 21 20 19 18 17 16 15 14 14 14 14 14 14 15 16 18 20 21 22 23 22 21 20 18 17 15 13 13 13 12 11 11 10 10 9 8 8 9 9 9 11 11 11 12 11 7 5 8 9 7 7 9 10 10 12 12 10 9 10 10 10 12 13 14 12 10 10
18 19 16 13 23 28 25 25 25 24 23 23 22 22 22 23 24 23 21 20 19 18 17 16 15 15 15 14 13 13 14 15 16 19 22 23 24 23 22 21 20 18 16 15 13 12 12 11 9 9 9 9 9 9 9 9 9 10 11 12 12 12 12 7 8 9 9 8 6 10 11 11 12 12 10 9 9 10 10 11 13 13 12 10 10
18 18 18 14 20 28 26 25 25 24 24 22 22 22 23 23 24 24 22 21 19 18 17 16 15 15 15 14 13 13 14 15 17 21 24 24 24 23 21 20 19 18 16 14 13 12 11 10 9 8 8 9 9 9 9 9 9 10 11 12 12 12 11 8 11 11 9 9 6 9 12 11 11 11 10 9 8 9 10 11 12 13 12 11 10
16 16 19 16 18 28 28 26 26 24 24 23 23 23 23 23 24 24 22 21 19 18 17 16 16 15 15 14 13 13 14 16 20 23 25 25 25 23 21 20 19 17 16 14 12 12 10 10 9 7 8 8 9 9 9 9 9 10 12 13 13 13 10 6 10 11 9 10 7 8 12 11 11 10 9 9 8 9 9 10 12 13 12 11 11
15 16 18 16 17 27 30 27 27 25 24 24 23 23 24 23 23 23 22 21 20 19 18 17 16 16 15 14 14 13 14 18 23 26 26 26 25 22 21 20 19 17 16 14 12 11 10 9 8 7 7 8 8 8 8 9 9 10 12 15 14 14 12 7 9 11 10 10 7 10 11 10 10 10 9 9 9 8 8 10 11 12 12 11 11
15 15 17 16 18 27 31 30 28 26 25 24 23 23 23 23 22 22 22 21 20 19 18 17 17 16 15 14 14 14 16 21 26 27 27 26 24 22 21 20 18 17 16 14 12 10 9 8 7 6 6 7 7 7 8 8 8 10 12 14 14 12 11 10 9 10 11 9 7 10 10 10 11 10 9 9 9 8 8 9 11 12 12 11 11
14 13 14 15 20 29 32 32 30 27 26 25 23 23 23 23 22 21 21 21 21 20 18 17 17 16 15 15 14 15 19 24 27 27 27 25 23 22 21 20 18 17 16 14 12 11 9 8 6 5 5 6 7 8 8 8 8 9 11 13 14 12 9 9 8 8 10 8 5 9 10 10 10 10 10 9 9 8 8 9 10 11 11 10 10
13 13 12 13 20 27 31 33 31 29 28 26 24 24 24 23 22 21 21 22 21 20 19 18 17 15 15 15 15 17 22 26 27 27 26 24 23 22 21 20 18 17 16 14 12 11 9 7 6 5 5 6 7 8 8 8 8 9 11 11 12 12 10 6 7 8 6 5 6 9 9 10 10 11 10 9 9 8 8 8 10 11 11 10 10
16 17 15 15 20 23 28 32 31 30 29 27 26 25 25 24 23 22 22 22 22 21 20 19 18 16 16 15 16 21 25 27 28 26 25 24 23 22 21 20 18 17 15 13 12 10 9 7 6 5 4 5 8 10 11 9 8 9 11 11 10 12 11 7 6 7 5 2 7 10 9 10 10 11 11 10 9 8 8 8 9 10 10 10 10
19 20 18 19 23 24 25 29 30 30 29 28 28 27 25 25 24 24 23 23 23 22 21 20 19 18 17 16 19 24 27 29 28 26 25 23 23 22 21 20 18 16 14 13 12 10 9 7 6 5 4 6 9 11 10 9 8 8 10 11 10 9 9 8 6 4 2 1 7 10 8 8 9 10 11 10 9 8 8 8 9 9 10 10 10
22 23 22 21 26 27 25 27 29 30 32 29 29 29 27 25 24 25 26 25 25 24 23 22 21 20 19 18 21 26 28 29 27 25 24 23 23 22 21 20 18 16 14 13 11 10 9 7 6 5 5 8 9 8 6 6 7 8 9 9 9 7 6 7 5 2 4 4 7 10 8 7 8 9 10 10 9 8 8 8 8 8 9 10 11
23 24 25 23 27 30 26 27 29 30 32 31 30 30 29 27 26 26 27 26 26 26 24 23 22 21 20 19 22 27 28 28 27 24 24 23 22 22 21 19 18 16 14 13 11 10 9 7 7 5 7 8 6 8 9 7 6 7 7 8 7 6 6 3 4 4 7 6 7 8 7 6 7 8 9 10 10 9 8 8 9 8 9 10 11
22 23 26 26 28 30 27 27 30 31 31 30 31 31 31 30 29 28 28 27 27 27 26 25 24 23 21 21 24 27 27 27 27 25 24 24 22 22 21 19 18 16 15 13 12 11 9 8 7 6 6 4 5 10 9 6 3 5 5 6 5 5 7 4 3 6 7 6 7 8 7 5 6 7 8 9 9 10 9 8 8 8 8 9 10
20 22 27 28 29 30 27 27 30 32 31 30 32 33 33 33 31 31 30 29 28 29 28 27 26 24 22 22 26 26 26 27 28 26 25 24 23 22 20 19 17 16 15 14 12 11 9 9 7 6 5 2 6 7 5 2 2 3 5 4 4 3 4 5 5 8 7 7 7 7 6 5 6 7 7 8 9 9 9 9 8 8 8 9 9
20 22 26 29 31 32 28 27 31 32 32 31 32 35 36 34 33 32 31 30 29 29 29 28 27 25 23 23 27 26 24 28 29 27 25 24 22 21 20 19 17 16 15 13 12 11 9 8 5 2 1 3 5 3 4 3 3 4 3 2 3 3 2 4 6 8 8 8 8 7 6 5 5 6 7 8 8 9 9 9 9 8 8 10 9
20 21 25 30 32 32 30 30 33 33 32 31 31 35 37 35 34 33 32 31 30 30 28 28 29 26 25 24 26 25 22 27 30 27 25 24 23 21 20 19 17 16 15 14 12 8 7 5 3 4 6 4 4 4 4 5 6 5 4 1 1 2 3 4 5 8 9 9 9 6 6 6 5 6 7 7 8 9 9 9 9 8 8 10 9
20 22 24 30 32 32 32 32 35 35 33 34 32 34 38 37 36 36 34 33 32 32 29 29 29 27 27 25 25 25 23 26 30 28 26 25 23 21 20 18 17 16 14 14 11 6 7 5 3 7 9 6 5 5 5 5 4 5 4 4 3 3 4 4 4 8 10 10 10 7 7 7 7 8 7 8 9 9 9 9 10 9 9 9 9
21 24 24 29 32 32 33 34 35 36 36 37 33 34 39 37 37 38 36 36 34 33 31 30 30 29 29 28 27 28 25 25 29 30 27 25 23 21 20 18 16 14 12 12 11 9 12 9 7 10 10 6 4 3 6 6 4 5 5 4 3 3 3 3 6 8 10 11 10 7 6 8 9 9 9 9 9 10 10 10 9 9 9 9 9
20 24 25 28 32 34 36 36 37 38 38 39 36 34 38 36 36 38 38 38 35 33 32 30 31 30 30 30 28 30 26 24 28 31 28 25 24 22 20 17 14 15 12 14 12 10 12 11 10 10 9 8 6 4 5 6 6 7 7 5 3 2 2 3 6 8 10 11 10 7 6 8 9 9 9 9 9 10 10 10 9 9 9 9 9
20 24 28 30 32 34 38 39 38 39 39 40 38 34 37 38 37 37 39 40 35 33 32 31 31 31 32 31 28 30 28 23 26 31 29 26 25 22 21 18 15 16 15 16 14 12 11 12 11 9 9 11 10 9 7 5 6 6 7 5 4 3 3 4 5 8 11 11 12 12 9 9 8 8 9 10 10 9 10 10 9 8 9 9 9
19 23 28 32 34 34 39 41 41 41 39 39 38 35 37 39 38 37 39 40 36 34 33 31 31 30 32 31 28 30 28 23 25 30 30 27 25 23 22 21 19 20 19 17 15 14 14 12 12 12 13 14 13 11 8 6 5 5 6 5 4 5 5 4 4 8 12 12 14 15 12 10 9 9 10 11 11 9 10 10 9 8 9 9 10
18 21 26 31 34 37 40 41 40 39 38 37 37 36 37 38 38 36 36 39 38 36 34 31 29 29 32 31 28 30 28 23 24 29 30 27 25 24 24 24 22 22 23 19 17 17 17 14 13 14 15 13 13 12 9 6 5 6 7 6 5 3 4 6 4 7 12 13 14 15 13 12 10 10 11 12 11 9 10 11 9 8 9 9 9
19 20 24 27 32 38 40 40 40 41 41 41 40 40 39 37 37 35 35 39 38 36 33 30 29 30 32 31 29 29 28 24 24 29 30 27 27 27 27 26 24 22 23 22 21 20 20 17 14 12 10 9 11 9 7 8 8 9 8 7 7 7 8 9 5 5 11 14 14 14 14 13 13 12 12 12 11 10 10 10 9 9 9 9 9
22 19 22 24 29 36 39 40 44 44 45 45 41 41 41 38 36 34 33 37 36 33 32 31 31 32 32 32 31 29 29 26 26 31 33 30 30 29 28 26 24 22 23 24 24 22 20 18 16 13 10 8 9 8 6 10 10 8 8 10 11 11 12 11 7 5 8 13 14 14 14 13 14 13 12 11 11 10 10 9 9 8 9 9 8
24 22 20 22 27 34 37 40 45 47 47 45 39 37 39 38 35 31 32 36 33 29 30 31 32 32 32 32 32 31 30 29 29 33 35 32 30 29 27 25 24 24 25 25 24 23 21 19 18 16 15 12 10 9 9 11 10 7 9 13 12 10 10 9 7 7 7 11 14 15 13 12 12 11 11 12 11 11 9 9 9 8 9 9 9
24 24 21 22 25 30 37 40 43 48 48 42 37 35 36 36 34 31 33 36 32 28 27 31 33 30 31 32 33 33 32 30 30 33 35 30 28 28 28 27 26 27 28 26 25 23 21 19 20 19 18 16 13 11 8 8 8 8 10 10 8 8 10 11 9 8 7 8 12 15 13 11 11 10 10 11 11 10 9 8 8 8 9 9 9
25 25 23 23 23 25 33 37 39 44 45 39 34 35 37 37 34 30 32 34 31 29 27 30 33 29 30 33 34 33 31 31 30 30 33 30 27 27 28 29 29 29 28 27 26 23 20 19 21 21 20 19 17 15 11 9 9 9 11 11 10 11 13 13 10 8 7 7 11 13 12 10 9 9 8 9 10 9 9 8 7 8 8 9 9
27 25 24 23 21 22 26 27 27 32 40 41 33 32 37 37 32 29 32 33 30 30 28 28 32 31 29 31 33 33 30 29 29 28 32 33 28 27 28 29 30 30 28 27 26 24 21 21 23 22 20 19 18 17 15 13 14 14 15 15 14 13 11 10 8 6 6 8 10 10 9 9 8 7 6 7 10 9 8 8 7 8 8 9 9
27 25 24 23 21 21 22 18 15 22 37 43 35 29 33 36 35 31 33 34 31 31 28 25 31 32 28 29 31 31 30 29 29 28 30 33 30 27 27 28 28 28 28 27 25 23 22 23 23 21 20 19 18 18 15 14 16 17 15 14 13 13 11 10 7 5 5 7 9 8 7 8 6 6 7 8 8 7 7 9 9 8 9 10 9
26 26 25 23 20 20 20 15 12 20 35 42 38 33 32 34 35 33 35 37 33 32 30 26 30 32 29 29 29 29 30 31 32 29 28 32 31 28 27 26 25 24 25 24 23 22 22 23 23 20 19 19 17 16 15 15 17 15 10 10 11 11 9 9 8 7 5 5 9 8 5 6 5 6 8 8 6 7 8 9 10 10 10 10 9
25 27 26 23 20 20 20 17 14 19 30 39 41 39 37 36 35 33 36 38 36 34 32 29 30 31 30 30 29 29 31 33 33 30 28 31 32 29 27 25 23 22 22 22 22 22 23 23 21 19 18 18 16 14 14 16 16 11 8 9 10 8 6 7 8 7 5 4 8 9 5 3 4 6 5 6 7 9 10 9 10 11 11 9 10
27 29 29 25 21 21 22 19 17 18 25 35 41 41 40 40 38 37 36 37 37 35 32 30 30 32 32 30 29 30 32 33 32 30 28 29 30 29 27 24 23 22 21 22 23 23 24 22 19 18 18 17 15 14 14 15 14 12 10 8 8 7 6 6 5 5 5 4 6 8 6 5 2 5 4 5 8 9 9 10 10 11 10 9 12
28 30 30 28 23 23 24 21 18 19 22 30 40 43 42 42 40 38 34 32 33 34 31 30 31 34 34 33 31 31 32 32 30 28 28 28 29 29 27 25 24 23 23 23 23 23 23 21 18 18 17 16 14 12 14 15 13 11 11 9 7 6 6 4 4 4 5 5 3 5 7 6 3 5 7 6 8 9 8 9 10 10 9 10 12
29 29 29 28 25 24 25 22 20 21 22 28 39 45 44 43 41 38 36 31 30 33 34 33 32 33 35 35 32 32 32 30 28 27 27 28 30 29 28 26 25 25 24 23 23 23 22 20 19 18 17 16 15 13 14 15 14 12 11 11 10 8 8 7 6 4 3 5 3 3 7 7 4 1 7 8 7 7 6 6 8 8 8 10 11
31 30 28 27 25 25 26 24 22 23 23 27 38 46 46 43 39 38 38 35 33 33 33 32 30 30 34 34 30 30 31 29 27 25 25 27 30 31 29 27 26 25 24 22 22 21 22 20 18 17 16 16 17 17 15 13 13 13 11 10 11 11 11 10 7 5 4 4 4 5 8 8 6 3 3 7 7 5 5 4 5 6 6 7 9
33 31 30 30 27 26 27 26 25 26 24 27 35 44 47 43 37 35 36 36 36 33 29 29 30 28 30 32 30 29 31 30 28 24 23 27 30 31 29 25 25 26 23 22 22 21 21 19 16 16 15 14 16 17 17 14 12 11 10 8 9 10 10 10 8 7 7 6 6 7 7 6 7 7 4 6 6 4 4 4 3 3 3 4 7
32 32 31 32 30 28 28 27 26 27 26 27 31 37 44 45 38 35 35 35 35 33 28 27 30 29 28 31 31 29 31 32 30 25 24 28 32 31 28 24 24 26 25 23 22 21 20 18 18 17 16 16 17 17 16 16 14 12 10 9 9 9 9 8 7 7 7 8 7 6 7 8 8 8 7 6 5 4 5 4 3 2 2 4 6
31 32 31 31 31 30 29 29 28 28 27 27 28 32 40 45 40 37 36 35 34 34 32 27 28 29 29 31 32 30 31 33 32 28 26 29 33 32 29 27 24 24 24 23 22 21 19 19 20 21 20 20 21 19 17 16 16 15 13 11 10 9 8 7 7 8 8 8 8 7 8 9 8 9 9 5 3 5 6 5 2 1 3 3 5
33 32 31 29 30 30 31 31 30 29 27 28 29 31 38 43 42 40 38 36 35 36 36 32 30 30 30 32 33 32 33 33 32 30 29 29 32 33 31 29 26 23 23 23 22 21 20 20 21 22 23 22 21 19 17 16 16 16 15 15 14 12 10 8 7 8 9 8 8 8 8 8 8 10 9 5 2 4 6 4 2 2 4 4 5
Wind_Direction
182 184 176 169 165 159 157 154 154 154 153 151 150 154 156 158 155 150 145 141 138 134 131 128 125 124 125 126 130 134 136 137 134 130 127 127 125 124 126 129 127 124 123 121 117 115 114 114 113 111 109 107 107 107 105 101 97 94 91 90 88 87 85 82 79 75 71 67 66 65 65 64 63 63 63 66 69 65 58 56 56 60 61 60 61
171 184 177 171 167 161 158 155 155 154 154 153 153 156 159 160 158 153 148 144 141 137 133 130 128 126 127 127 130 135 138 139 135 130 127 127 125 124 128 129 127 125 123 121 118 117 118 118 117 113 110 109 109 109 106 101 96 92 88 87 84 83 83 80 76 74 72 66 62 61 61 62 62 63 65 67 70 67 61 59 57 59 61 60 58
163 173 177 173 168 163 158 156 155 155 156 154 155 158 162 162 159 156 150 147 143 140 137 133 131 130 130 129 132 135 139 139 136 131 128 127 125 127 130 130 127 127 124 121 120 120 121 121 119 114 112 110 110 109 104 100 95 91 87 82 79 79 80 78 74 71 71 67 60 56 54 57 61 64 66 69 72 70 66 62 59 58 57 56 53
167 167 177 173 169 165 159 157 156 156 157 155 157 160 164 165 161 158 153 150 147 143 140 137 135 135 134 133 134 136 139 140 138 133 130 128 127 131 132 131 129 128 126 124 123 123 123 122 120 116 113 111 110 107 103 98 94 90 84 78 75 76 78 77 73 69 69 68 63 55 47 49 57 61 66 68 70 69 65 63 61 56 50 49 46
174 172 178 174 169 167 161 159 158 157 157 156 158 162 166 167 164 160 157 153 150 148 144 141 139 139 138 136 137 137 139 141 141 135 131 130 130 134 135 132 131 130 129 128 127 125 124 122 120 117 114 112 110 107 102 97 93 87 81 75 72 74 76 74 72 69 68 68 71 66 46 40 49 53 59 62 63 63 58 58 61 58 48 42 42
204 177 178 176 171 168 163 161 159 158 157 158 159 163 168 168 167 162 160 156 154 152 148 146 142 143 141 140 140 139 139 142 144 138 132 132 134 137 137 134 133 133 133 132 129 127 125 124 121 119 116 113 110 106 102 97 92 85 78 72 70 72 72 71 70 68 67 67 69 76 57 35 43 48 52 55 55 56 53 51 54 55 48 39 40
227 176 180 178 173 169 165 163 159 159 159 159 160 163 169 169 169 165 162 159 158 156 152 150 147 147 145 144 144 142 141 143 146 140 135 135 138 140 139 136 137 138 137 136 132 129 129 128 124 120 118 116 112 107 105 98 91 83 75 70 67 67 69 71 70 65 65 70 74 80 70 32 37 44 48 51 53 54 53 48 45 47 46 41 38
229 174 182 180 174 171 166 165 160 161 161 160 162 164 169 169 170 169 165 164 162 160 157 154 151 151 149 149 147 145 143 145 148 143 139 139 142 142 141 139 141 142 140 139 133 132 132 130 126 121 119 117 114 109 107 99 92 83 74 67 63 64 68 73 73 66 60 69 76 78 63 28 34 40 44 49 53 54 54 46 40 40 42 43 39
201 170 182 182 175 173 168 167 163 162 163 162 163 166 170 170 171 171 169 168 166 163 161 158 156 155 153 154 151 149 146 147 150 146 144 143 146 146 143 142 144 145 143 142 136 134 132 130 127 123 120 117 115 110 107 100 94 83 74 65 62 63 66 72 75 70 61 66 73 77 64 26 30 37 42 45 50 52 52 45 38 39 42 43 42
155 166 184 184 177 174 170 167 165 163 163 163 165 167 172 172 172 173 172 171 170 167 164 161 159 158 157 159 156 153 149 149 151 149 148 146 149 149 146 145 148 149 147 145 139 134 132 131 129 127 122 117 114 109 106 101 95 84 75 66 65 68 67 68 75 74 67 73 73 74 65 32 30 37 42 43 46 50 50 44 39 40 44 44 44
136 165 185 186 178 174 171 170 167 166 163 165 166 167 173 174 174 174 175 175 173 171 168 165 163 161 161 163 160 157 153 152 153 152 151 150 153 152 149 149 152 153 151 149 143 137 133 133 133 131 128 120 115 111 109 105 99 87 77 71 68 68 66 60 72 77 65 73 74 67 50 32 31 37 43 45 45 47 46 42 38 38 42 45 42
137 167 186 184 180 176 172 172 169 168 165 165 167 168 173 175 175 175 176 177 176 174 171 169 166 164 163 164 162 160 158 156 156 156 154 153 156 155 151 152 156 156 154 152 146 140 135 135 135 134 131 124 121 118 115 109 102 87 78 75 68 62 55 48 63 70 62 65 68 68 50 31 34 38 45 49 47 44 41 38 36 36 38 40 37
144 171 186 176 179 179 173 174 171 170 166 165 168 169 172 176 177 176 177 179 179 177 175 174 171 167 164 164 162 162 163 160 160 160 158 157 159 158 154 156 160 159 157 156 150 142 137 136 135 132 129 127 128 124 119 112 103 86 76 76 71 61 47 42 73 68 71 72 49 52 46 33 35 38 42 48 48 42 38 37 34 34 35 35 32
157 176 191 181 179 180 176 176 173 171 168 167 169 170 173 176 178 178 179 180 181 181 179 178 174 170 166 164 163 164 164 164 166 163 160 159 160 159 157 160 163 162 160 158 152 144 139 135 132 127 123 126 127 124 121 113 100 84 75 75 72 64 48 48 74 62 72 80 48 41 37 30 33 33 37 43 47 42 38 37 32 31 31 29 25
173 180 192 193 182 181 179 177 175 172 169 169 169 171 174 177 179 179 180 181 182 182 181 180 178 174 169 166 166 166 166 167 168 165 161 161 161 160 160 164 166 165 162 160 155 148 142 135 130 124 120 122 122 122 118 107 95 82 77 76 74 72 60 51 62 61 69 73 60 45 34 26 31 30 33 40 44 42 40 37 31 30 27 26 24
183 182 191 195 185 182 179 178 177 174 171 171 171 173 176 178 181 181 181 182 182 182 181 181 180 177 173 170 170 170 168 167 167 164 162 162 162 161 163 166 169 167 163 162 159 152 145 138 133 126 121 121 120 119 111 101 90 81 81 80 79 79 74 50 58 73 72 65 62 40 30 25 29 29 30 36 41 41 41 37 32 29 27 27 29
186 188 192 192 187 184 180 177 177 176 174 172 173 176 178 179 181 182 182 182 182 182 180 180 180 179 178 174 173 174 170 165 165 164 163 163 162 163 166 169 171 169 167 168 163 156 150 142 137 132 125 121 119 114 104 97 89 88 89 82 78 77 76 57 55 71 69 71 62 30 26 24 25 27 30 34 40 41 39 36 32 30 28 30 31
187 193 190 192 190 185 181 178 176 176 176 174 175 178 179 180 180 182 183 182 181 181 180 179 181 181 181 178 176 176 169 163 164 165 164 164 163 165 168 171 173 172 173 172 167 162 155 148 143 138 124 118 115 107 100 96 91 95 93 81 75 73 73 70 72 71 69 84 59 28 27 21 23 26 28 33 38 40 39 35 32 31 29 30 31
186 187 183 193 189 186 183 178 176 176 178 176 177 180 181 181 181 183 183 183 181 180 181 179 181 182 182 179 176 174 166 163 165 165 165 165 165 167 170 172 175 176 177 176 172 169 162 156 150 140 125 117 110 100 96 95 93 97 91 78 72 68 67 69 80 78 76 93 48 26 31 20 22 25 26 31 35 38 38 34 32 31 30 30 29
179 173 174 180 177 184 183 178 177 178 179 177 178 183 184 183 182 184 183 182 182 180 181 180 180 181 184 179 174 171 165 164 166 166 167 167 168 169 172 174 178 180 180 179 177 175 169 163 155 146 132 115 105 95 92 94 95 94 79 68 65 59 62 54 56 72 90 103 36 24 32 21 21 23 24 29 32 34 34 32 31 31 30 31 30
170 169 169 165 164 176 182 178 176 178 181 178 179 184 186 187 184 185 185 183 182 181 182 182 181 182 185 181 175 170 166 166 168 168 169 169 170 171 173 177 181 183 183 183 182 180 174 169 162 153 139 115 102 92 88 88 89 87 68 62 62 51 58 52 43 73 104 104 25 22 29 21 19 22 21 26 29 31 29 28 28 29 30 33 31
171 174 169 165 165 174 184 179 175 179 183 181 181 182 183 187 187 186 186 185 184 183 184 184 183 185 186 183 177 171 167 168 169 170 172 172 173 173 176 180 183 184 186 186 184 182 178 175 168 160 140 112 101 93 86 79 71 62 52 54 56 46 53 53 47 73 100 46 9 16 23 17 19 20 20 24 25 27 26 25 26 24 28 36 33
169 176 172 170 170 174 185 181 176 180 183 184 182 180 181 185 187 187 187 186 186 185 185 187 187 186 186 184 179 172 169 169 170 172 174 176 175 176 179 181 183 185 187 188 186 184 182 177 171 172 140 112 97 85 62 56 57 35 33 42 45 36 22 38 49 339 299 321 353 8 17 14 18 20 20 22 22 23 22 22 23 20 24 35 33
169 181 176 173 175 176 182 180 177 180 183 187 186 181 181 184 186 187 188 187 187 185 184 188 191 188 186 185 179 173 170 171 171 173 179 180 179 180 181 182 183 186 188 189 190 189 186 180 176 176 146 122 80 49 17 356 13 4 10 32 36 24 4 27 53 338 314 325 350 2 12 15 17 21 21 20 19 18 18 19 18 18 23 28 29
173 187 182 175 182 183 183 181 181 182 181 186 189 184 182 184 187 188 187 187 188 185 185 190 192 190 187 183 178 173 171 174 173 176 183 183 182 183 184 184 184 187 190 191 193 194 190 184 184 179 164 141 45 29 1 327 344 346 347 20 25 12 17 36 358 323 314 321 345 359 7 16 18 20 19 17 17 16 15 15 14 15 20 23 22
176 187 188 179 184 188 185 183 184 184 181 185 189 186 184 184 188 189 184 187 189 185 186 191 193 188 188 184 174 172 175 178 177 180 185 185 185 185 185 185 185 189 192 195 196 196 195 189 187 180 176 103 38 12 332 268 210 284 293 328 10 17 21 34 354 325 318 312 328 350 360 10 15 14 14 12 12 13 12 10 9 11 13 14 13
181 186 191 180 182 187 180 181 185 185 185 188 191 188 187 186 189 189 184 186 189 187 186 190 194 186 186 186 173 170 178 182 180 182 187 187 189 187 187 188 187 191 192 197 199 196 199 189 184 215 288 7 17 313 283 304 300 312 318 297 360 20 343 13 356 324 318 313 320 341 350 356 3 3 2 1 4 5 6 6 5 5 5 4 3
187 188 193 183 183 186 179 179 184 186 186 190 195 190 186 187 188 189 185 186 189 191 188 190 195 186 183 185 175 170 180 188 184 183 187 188 191 190 190 191 188 194 193 197 200 193 207 189 162 257 280 293 281 262 272 290 291 319 350 323 332 3 336 354 354 314 308 312 318 325 333 338 338 346 348 346 351 355 358 0 359 360 360 358 356
194 190 195 190 188 189 184 182 184 186 184 188 197 192 185 186 188 189 186 187 191 193 190 192 195 187 180 181 178 173 180 194 188 183 187 188 193 193 193 194 193 196 195 196 193 187 225 219 191 229 240 243 238 252 275 276 274 285 298 304 309 328 327 339 345 310 298 309 316 309 317 327 327 331 332 332 338 342 349 353 353 352 352 355 351
203 194 195 194 190 191 188 185 188 187 182 186 195 193 186 185 189 189 187 188 192 193 190 192 195 190 181 180 181 176 179 196 192 185 187 188 192 195 194 196 196 191 199 208 185 185 221 213 215 226 218 230 249 261 267 264 264 264 265 289 308 310 311 348 346 309 294 308 316 306 309 323 328 327 324 322 325 333 340 345 347 343 340 345 344
207 199 197 196 192 195 191 188 192 187 181 186 192 193 185 183 189 189 187 188 189 191 190 190 194 191 184 184 183 175 178 197 196 186 187 188 189 196 192 189 195 183 202 229 195 186 223 210 212 223 206 228 256 244 240 244 255 274 280 284 312 313 289 345 341 301 293 305 310 305 306 316 321 321 320 317 319 328 334 336 339 336 331 334 336
208 205 202 200 196 198 196 192 192 188 183 186 192 191 182 183 188 186 186 187 186 189 189 190 192 190 188 189 184 175 177 195 199 187 187 188 186 195 189 182 194 187 199 226 201 183 217 217 214 220 219 234 237 215 212 240 265 290 305 316 356 345 293 320 335 306 298 300 303 306 308 308 304 307 314 315 317 326 336 335 329 326 325 327 328
209 210 208 205 199 198 200 197 192 188 184 187 193 191 182 185 188 184 185 185 183 187 189 190 190 187 190 192 184 176 175 190 198 185 186 190 185 192 188 183 195 196 200 210 197 192 202 209 213 217 223 226 225 223 232 261 271 287 314 323 327 338 318 289 325 323 310 308 307 305 306 304 294 298 309 313 317 326 337 336 326 320 321 321 320
207 211 210 209 204 201 203 202 196 191 187 187 194 192 184 187 189 182 183 184 183 186 187 190 189 185 190 192 184 178 175 187 198 184 185 191 186 189 189 190 197 199 204 198 190 204 204 200 213 226 231 230 232 243 268 290 279 273 295 297 255 286 305 276 306 316 299 301 303 302 301 300 293 293 306 314 319 326 333 331 324 318 315 314 314
204 208 213 211 207 207 207 205 200 195 194 191 192 193 186 187 188 183 184 184 183 186 186 187 186 183 188 190 183 180 176 186 195 182 183 190 187 192 194 196 201 200 209 204 194 209 212 205 214 230 241 258 265 262 266 268 268 263 277 293 254 245 274 286 307 304 294 296 296 299 299 297 295 293 302 314 318 322 325 322 317 314 308 307 310
203 204 217 216 210 212 210 205 202 199 197 192 190 190 188 187 185 184 187 185 183 186 188 186 185 184 188 187 182 180 179 185 189 179 182 191 190 196 198 198 205 205 213 216 210 216 219 214 219 226 224 240 270 276 259 253 263 267 261 269 263 261 277 290 291 269 291 299 296 298 298 297 298 295 297 308 315 317 318 314 310 309 304 302 304
205 201 213 218 214 218 216 209 206 203 197 191 188 184 184 186 184 186 188 185 185 185 187 186 184 188 190 188 184 183 183 185 186 181 183 190 192 197 198 199 205 210 217 223 222 222 224 224 226 229 221 213 227 247 261 259 254 258 257 259 270 276 274 278 276 263 274 290 292 295 296 299 302 297 296 306 315 314 312 310 307 302 299 297 295
211 206 210 217 216 219 220 214 207 204 198 191 191 186 182 181 181 188 188 184 184 185 189 188 185 189 193 190 188 187 186 186 185 184 184 187 193 198 198 200 206 213 220 225 227 226 225 229 233 234 231 227 228 231 252 269 246 249 263 261 276 283 274 278 278 270 272 278 283 288 294 295 296 295 294 304 314 311 309 310 301 292 291 289 288
215 213 213 221 221 220 224 220 211 206 200 194 193 190 185 180 178 186 187 184 184 185 191 193 188 191 194 192 193 192 187 187 187 185 185 184 190 198 199 202 209 216 222 225 228 228 223 225 234 238 240 242 245 241 241 257 249 246 256 256 263 270 277 287 283 265 262 264 268 277 285 284 286 292 286 297 310 308 306 306 295 288 284 282 285
214 217 217 222 223 221 227 230 222 210 204 202 198 190 184 181 181 181 183 185 187 189 193 194 189 192 195 192 196 194 185 187 189 186 187 185 188 196 200 206 212 217 223 225 227 229 225 226 234 240 245 247 251 249 239 244 249 244 251 262 272 280 287 294 290 268 248 253 261 269 279 279 285 291 285 304 314 310 308 308 296 284 279 279 283
208 216 219 222 221 222 228 234 228 212 208 207 203 194 183 181 185 183 183 186 187 192 196 196 188 189 194 190 193 193 185 188 189 189 190 186 189 196 201 209 214 218 223 226 227 229 228 230 236 241 246 248 250 249 236 235 248 250 256 269 279 291 303 299 286 263 242 245 257 271 280 276 284 295 298 314 314 302 304 307 296 282 277 280 278
206 216 222 221 218 224 229 228 214 207 208 205 201 201 193 187 192 193 190 187 186 190 192 193 186 186 192 190 193 197 191 191 190 192 191 188 193 198 202 210 212 216 221 222 223 224 226 230 234 238 242 246 247 246 234 228 242 253 263 273 278 294 302 284 268 259 250 226 242 262 269 272 307 320 302 307 306 290 294 300 295 285 279 277 270
212 221 228 223 217 223 229 224 213 205 206 203 200 201 199 193 196 197 192 186 187 190 188 190 186 184 189 191 195 199 196 196 194 194 192 190 196 199 201 205 206 211 213 214 214 214 221 228 231 234 236 240 241 241 235 231 238 243 254 262 269 297 299 261 260 264 259 210 226 248 246 250 314 336 311 303 302 292 290 293 290 284 281 272 262
216 223 228 226 216 220 229 224 217 211 206 205 202 202 199 194 195 194 191 187 187 188 187 190 188 183 185 189 196 198 197 200 199 198 196 192 195 197 198 199 200 206 208 210 210 210 220 226 226 229 230 232 233 232 232 238 243 230 228 248 258 277 274 249 267 277 260 233 213 232 228 200 250 326 333 309 301 295 289 288 285 281 278 264 256
219 221 223 225 216 215 227 224 220 218 210 208 205 202 200 196 196 194 190 188 185 185 188 190 188 185 183 188 197 199 197 200 200 200 200 194 191 193 195 196 197 202 205 208 209 211 221 224 223 226 228 228 226 229 235 243 252 236 223 233 245 251 245 244 292 294 250 248 227 229 233 204 189 336 347 324 300 303 296 277 274 276 271 260 251
222 221 218 222 217 212 222 223 223 223 215 211 207 205 201 196 196 195 190 188 187 189 192 192 190 188 186 187 195 198 196 198 201 202 202 197 189 187 192 196 197 201 205 206 208 212 219 222 222 225 228 225 213 215 232 243 250 250 241 239 239 241 246 258 280 287 254 257 263 244 245 229 193 7 354 332 302 302 304 270 260 264 266 262 243
225 224 218 221 216 211 219 221 223 226 219 213 209 207 203 197 197 197 190 188 192 195 192 191 193 190 187 188 193 195 191 194 203 205 204 199 189 186 191 195 197 202 205 206 209 211 216 222 223 224 226 222 215 209 213 232 246 253 255 245 238 242 252 260 262 263 265 265 269 268 260 245 227 220 350 342 323 306 312 293 260 255 262 260 234
224 224 221 221 217 211 216 221 224 227 222 214 211 210 207 204 203 199 192 191 196 199 193 187 191 189 185 187 192 193 189 193 202 203 203 197 189 188 191 196 200 203 205 207 212 214 215 218 216 220 223 219 222 218 210 219 239 252 256 246 239 240 246 252 257 260 260 267 278 286 284 270 270 278 295 334 338 333 340 329 284 257 254 238 228
222 224 222 221 219 212 213 217 221 225 222 215 214 213 210 209 206 199 197 199 200 201 199 190 188 188 185 187 192 193 189 192 198 201 201 194 189 190 190 195 202 205 205 206 211 216 215 209 203 211 221 215 218 225 222 221 226 235 244 249 249 249 251 250 257 268 265 267 274 285 301 308 311 303 297 313 339 2 1 339 310 265 241 220 224
221 223 220 218 218 212 211 214 218 222 221 217 216 215 211 209 205 198 198 203 201 199 202 198 190 190 191 191 193 193 190 193 197 199 200 193 192 193 191 195 202 202 202 203 209 216 215 206 201 205 214 216 220 228 234 232 225 223 225 232 238 242 254 255 253 264 266 269 280 290 302 317 330 319 313 325 354 7 0 340 323 261 242 228 229
222 223 219 215 215 212 210 211 215 219 220 217 216 215 211 209 206 200 198 201 199 197 199 199 195 195 196 194 194 193 192 194 196 196 197 195 196 197 195 198 201 199 198 201 206 214 215 209 207 212 216 222 229 232 236 238 230 224 221 223 227 226 233 240 240 253 259 261 275 290 303 317 326 325 332 353 5 1 7 351 324 277 266 253 235